When you browse on this site, cookies collect data to enhance your experience and personalize the content and advertising you see.
Visit our Privacy Policy to learn more. By continuing to use the site, you agree to this use of cookies and data.
  • In Italy
  • List of Countries
  • For 7 days
  • Water Temperature
  • Satellite Maps
  • Weather Map
  • Weather Widgets
  • user-avatar
    Login

    Hourly Weather Kandi

    Today, 21 April, Sunday

    Time Temperature Precipitation Wind Pressure Humidity
    00:00 +38°C° 0 mm 2 mps 735 mmHg 28%
    01:00 +37°C° 0 mm 3 mps 735 mmHg 32%
    02:00 +36°C° 0 mm 3 mps 735 mmHg 37%
    03:00 +36°C° 0 mm 3 mps 735 mmHg 42%
    04:00 +35°C° 0 mm 3 mps 735 mmHg 45%
    05:00 +34°C° 0 mm 3 mps 735 mmHg 49%
    06:00 +32°C° 0 mm 2 mps 735 mmHg 54%
    07:00 +35°C° 0 mm 3 mps 735 mmHg 50%
    08:00 +36°C° 0 mm 3 mps 736 mmHg 46%
    09:00 +38°C° 0 mm 3 mps 736 mmHg 43%
    10:00 +40°C° 0 mm 2 mps 736 mmHg 35%
    11:00 +43°C° 0 mm 2 mps 735 mmHg 28%
    12:00 +45°C° 0 mm 1 mps 735 mmHg 21%
    13:00 +46°C° 0 mm 1 mps 734 mmHg 19%
    14:00 +46°C° 0 mm 1 mps 733 mmHg 18%
    15:00 +44°C° 0 mm 0 mps 733 mmHg 16%
    16:00 +42°C° 0 mm 0 mps 733 mmHg 17%
    17:00 +41°C° 0 mm 0 mps 733 mmHg 18%
    18:00 +40°C° 0 mm 0 mps 732 mmHg 19%
    19:00 +42°C° 0 mm 1 mps 733 mmHg 20%
    20:00 +42°C° 0 mm 1 mps 733 mmHg 21%
    21:00 +41°C° 0 mm 2 mps 734 mmHg 22%
    22:00 +40°C° 0 mm 2 mps 734 mmHg 25%
    23:00 +39°C° 0 mm 2 mps 733 mmHg 28%

    Tomorrow, 22 April, Monday

    Time Temperature Precipitation Wind Pressure Humidity
    00:00 +38°C° 0 mm 2 mps 733 mmHg 31%
    01:00 +37°C° 0 mm 1 mps 733 mmHg 33%
    02:00 +36°C° 0 mm 1 mps 733 mmHg 34%
    03:00 +36°C° 0 mm 1 mps 732 mmHg 36%
    04:00 +35°C° 0 mm 1 mps 733 mmHg 37%
    05:00 +36°C° 0 mm 2 mps 733 mmHg 38%
    06:00 +36°C° 0 mm 2 mps 733 mmHg 39%
    07:00 +37°C° 0 mm 3 mps 734 mmHg 38%
    08:00 +37°C° 0 mm 4 mps 735 mmHg 37%
    09:00 +39°C° 0 mm 5 mps 735 mmHg 36%
    10:00 +41°C° 0 mm 4 mps 735 mmHg 31%
    11:00 +43°C° 0 mm 3 mps 735 mmHg 27%
    12:00 +45°C° 0 mm 2 mps 734 mmHg 23%
    13:00 +43°C° 0 mm 2 mps 733 mmHg 23%
    14:00 +43°C° 0 mm 2 mps 733 mmHg 23%
    15:00 +43°C° 0 mm 2 mps 732 mmHg 22%
    16:00 +42°C° 0 mm 2 mps 732 mmHg 24%
    17:00 +42°C° 0 mm 2 mps 732 mmHg 25%
    18:00 +41°C° 0 mm 2 mps 732 mmHg 26%
    19:00 +40°C° 0.2 mm 2 mps 732 mmHg 29%
    20:00 +39°C° 0.2 mm 3 mps 733 mmHg 32%
    21:00 +38°C° 0.2 mm 3 mps 733 mmHg 36%
    22:00 +37°C° 0.2 mm 3 mps 733 mmHg 39%
    23:00 +36°C° 0.2 mm 3 mps 733 mmHg 43%

    Day after tomorrow, 23 April, Tuesday

    Time Temperature Precipitation Wind Pressure Humidity
    00:00 +35°C° 0.2 mm 4 mps 733 mmHg 47%
    01:00 +35°C° 0 mm 3 mps 733 mmHg 51%
    02:00 +34°C° 0 mm 3 mps 733 mmHg 55%
    03:00 +33°C° 0 mm 3 mps 733 mmHg 59%
    04:00 +33°C° 0 mm 3 mps 733 mmHg 61%
    05:00 +33°C° 0 mm 3 mps 734 mmHg 62%
    06:00 +31°C° 0 mm 3 mps 734 mmHg 64%
    07:00 +34°C° 0 mm 3 mps 735 mmHg 59%
    08:00 +35°C° 0 mm 3 mps 735 mmHg 53%
    09:00 +37°C° 0 mm 3 mps 736 mmHg 48%
    10:00 +39°C° 0 mm 3 mps 736 mmHg 42%
    11:00 +42°C° 0 mm 3 mps 735 mmHg 35%
    12:00 +42°C° 0 mm 2 mps 735 mmHg 29%
    13:00 +42°C° 0 mm 2 mps 734 mmHg 30%
    14:00 +42°C° 0 mm 2 mps 733 mmHg 30%
    15:00 +41°C° 0 mm 2 mps 732 mmHg 30%
    16:00 +41°C° 0 mm 2 mps 732 mmHg 31%
    17:00 +41°C° 0 mm 1 mps 733 mmHg 31%
    18:00 +40°C° 0 mm 1 mps 733 mmHg 32%
    19:00 +39°C° 0.2 mm 1 mps 733 mmHg 35%
    20:00 +37°C° 0.2 mm 1 mps 734 mmHg 37%
    21:00 +37°C° 0.2 mm 2 mps 735 mmHg 40%
    22:00 +36°C° 1.4 mm 1 mps 735 mmHg 43%
    23:00 +35°C° 1.4 mm 1 mps 735 mmHg 46%

    24 April, Wednesday

    Time Temperature Precipitation Wind Pressure Humidity
    00:00 +34°C° 1.4 mm 1 mps 735 mmHg 50%
    01:00 +33°C° 0 mm 1 mps 734 mmHg 51%
    02:00 +33°C° 0 mm 1 mps 734 mmHg 52%
    03:00 +34°C° 0 mm 2 mps 733 mmHg 53%
    04:00 +32°C° 0 mm 2 mps 734 mmHg 56%
    05:00 +32°C° 0 mm 2 mps 734 mmHg 58%
    06:00 +32°C° 0 mm 2 mps 734 mmHg 61%
    07:00 +34°C° 0 mm 2 mps 735 mmHg 57%
    08:00 +36°C° 0 mm 3 mps 736 mmHg 52%
    09:00 +37°C° 0 mm 3 mps 736 mmHg 48%
    10:00 +40°C° 0 mm 2 mps 736 mmHg 41%
    11:00 +42°C° 0 mm 1 mps 736 mmHg 34%
    12:00 +45°C° 0 mm 1 mps 736 mmHg 27%
    13:00 +44°C° 0 mm 1 mps 735 mmHg 27%
    14:00 +41°C° 0 mm 0 mps 734 mmHg 26%
    15:00 +41°C° 0 mm 0 mps 733 mmHg 26%
    16:00 +40°C° 0 mm 0 mps 733 mmHg 26%
    17:00 +39°C° 0 mm 0 mps 734 mmHg 27%
    18:00 +39°C° 0 mm 0 mps 734 mmHg 27%
    19:00 +41°C° 0 mm 1 mps 734 mmHg 29%
    20:00 +40°C° 0 mm 1 mps 735 mmHg 32%
    21:00 +40°C° 0 mm 1 mps 735 mmHg 34%
    22:00 +39°C° 0 mm 1 mps 735 mmHg 36%
    23:00 +37°C° 0 mm 1 mps 735 mmHg 38%

    25 April, Thursday

    Time Temperature Precipitation Wind Pressure Humidity
    00:00 +37°C° 0 mm 2 mps 734 mmHg 41%
    01:00 +37°C° 0 mm 2 mps 734 mmHg 45%
    02:00 +36°C° 0 mm 3 mps 734 mmHg 49%
    03:00 +35°C° 0 mm 4 mps 734 mmHg 53%
    04:00 +35°C° 0 mm 3 mps 734 mmHg 55%
    05:00 +34°C° 0 mm 3 mps 735 mmHg 57%
    06:00 +34°C° 0 mm 3 mps 736 mmHg 60%
    07:00 +35°C° 0 mm 3 mps 736 mmHg 56%
    08:00 +36°C° 0 mm 3 mps 737 mmHg 53%
    09:00 +36°C° 0 mm 3 mps 738 mmHg 50%
    10:00 +38°C° 0 mm 3 mps 737 mmHg 45%
    11:00 +40°C° 0 mm 3 mps 736 mmHg 40%
    12:00 +41°C° 0 mm 2 mps 736 mmHg 35%
    13:00 +42°C° 0 mm 2 mps 735 mmHg 33%
    14:00 +42°C° 0 mm 2 mps 734 mmHg 30%
    15:00 +43°C° 0 mm 2 mps 733 mmHg 28%
    16:00 +42°C° 0 mm 2 mps 733 mmHg 29%
    17:00 +41°C° 0 mm 2 mps 733 mmHg 31%
    18:00 +41°C° 0 mm 2 mps 733 mmHg 32%
    19:00 +40°C° 0 mm 1 mps 734 mmHg 33%
    20:00 +40°C° 0 mm 1 mps 735 mmHg 34%
    21:00 +39°C° 0 mm 1 mps 735 mmHg 36%
    22:00 +38°C° 0 mm 2 mps 735 mmHg 38%
    23:00 +38°C° 0 mm 3 mps 735 mmHg 40%

    26 April, Friday

    Time Temperature Precipitation Wind Pressure Humidity
    00:00 +37°C° 0 mm 3 mps 734 mmHg 42%
    01:00 +37°C° 0 mm 3 mps 734 mmHg 46%
    02:00 +36°C° 0 mm 3 mps 734 mmHg 49%
    03:00 +35°C° 0 mm 3 mps 733 mmHg 53%
    04:00 +35°C° 0 mm 3 mps 734 mmHg 54%
    05:00 +34°C° 0 mm 3 mps 734 mmHg 55%
    06:00 +34°C° 0 mm 2 mps 735 mmHg 57%
    07:00 +36°C° 0 mm 2 mps 735 mmHg 52%
    08:00 +37°C° 0 mm 3 mps 735 mmHg 47%
    09:00 +39°C° 0 mm 3 mps 736 mmHg 42%
    10:00 +41°C° 0 mm 2 mps 735 mmHg 36%
    11:00 +44°C° 0 mm 1 mps 735 mmHg 30%
    12:00 +46°C° 0 mm 1 mps 734 mmHg 24%
    13:00 +46°C° 0 mm 1 mps 734 mmHg 23%
    14:00 +45°C° 0 mm 1 mps 733 mmHg 22%
    15:00 +44°C° 0 mm 1 mps 732 mmHg 21%
    16:00 +44°C° 0 mm 1 mps 732 mmHg 22%
    17:00 +43°C° 0 mm 1 mps 732 mmHg 23%
    18:00 +43°C° 0 mm 1 mps 732 mmHg 24%
    19:00 +42°C° 0 mm 1 mps 733 mmHg 25%
    20:00 +42°C° 0 mm 2 mps 733 mmHg 26%
    21:00 +41°C° 0 mm 2 mps 733 mmHg 27%
    22:00 +40°C° 0 mm 2 mps 733 mmHg 32%
    23:00 +39°C° 0 mm 3 mps 733 mmHg 37%
    Show more